Theta_e
316 318 318 318 317 316 314 312 314 319 321 323 325 326 326 324 321 318 318 319 314 314 320 318 316 319 318 315 313 307 307 310 307 305 304 301 300 299 298 298 297 296 295 293 293 294 294 294 295 296 298 299 301 302 304 307 308 310 312 314 314 314 316 318 318 318 317 316 315 313 310 307 306 307 308 307 307 307 307 308 310 309 309 310 310 310
313 318 319 316 316 315 313 312 312 316 318 317 318 320 321 321 319 315 314 316 312 313 321 317 314 318 316 314 313 308 311 311 306 305 303 300 300 299 298 298 297 297 295 293 293 293 293 294 294 295 296 297 298 298 300 302 303 306 309 310 310 312 314 314 313 314 313 312 311 309 306 304 304 304 304 304 303 303 305 306 307 307 306 307 307 307
314 317 316 314 316 316 313 312 311 313 314 314 316 315 317 318 318 319 316 314 312 313 321 319 314 318 316 315 311 307 309 306 301 303 302 300 300 299 299 298 297 297 295 293 292 292 292 292 293 294 294 295 296 296 297 298 301 303 305 306 307 310 310 309 309 309 308 307 307 306 304 304 303 301 301 301 300 301 302 302 302 302 302 303 304 304
318 319 315 313 317 316 315 315 313 313 313 314 316 316 319 318 319 325 321 315 314 312 316 317 315 317 316 314 309 303 302 301 299 301 300 299 300 299 298 297 296 296 296 295 293 291 291 291 292 292 293 294 295 296 296 297 298 300 302 303 305 306 307 306 306 306 305 304 304 303 302 301 301 299 300 300 300 300 300 300 300 299 300 300 300 300
320 320 315 315 316 315 316 317 315 315 317 317 318 317 319 318 319 323 320 317 318 315 314 313 318 325 322 319 313 304 301 300 299 299 299 299 298 297 297 296 296 296 295 295 294 291 290 290 291 291 291 293 294 294 294 294 296 298 301 302 303 303 304 304 304 304 304 303 303 302 301 301 301 300 300 299 298 298 298 298 298 298 298 299 299 299
318 317 315 317 317 315 316 318 319 319 319 320 322 319 318 319 320 320 317 317 321 324 317 312 322 336 334 329 318 306 304 303 301 301 300 299 298 298 298 297 296 295 294 293 292 291 290 290 290 290 291 291 292 293 294 294 295 297 300 301 302 302 302 302 302 303 303 303 302 302 301 300 298 295 294 293 294 295 295 295 295 296 296 297 298 298
318 315 315 319 320 317 316 318 320 318 318 322 322 320 317 315 317 318 317 318 324 327 315 310 320 332 336 336 321 308 308 306 302 302 301 299 299 298 298 297 297 296 294 293 291 290 289 289 289 289 290 290 291 292 294 295 296 297 299 300 301 301 301 301 301 302 302 302 301 300 299 297 295 291 289 290 291 291 292 292 292 292 293 294 295 295
319 317 316 318 320 320 318 320 319 316 321 325 320 320 321 318 319 321 318 319 324 323 318 316 318 321 328 330 317 308 312 310 303 303 301 300 300 299 298 298 297 296 295 295 293 290 289 289 289 289 289 290 290 291 294 295 296 297 297 298 299 299 299 299 300 300 300 300 299 298 297 295 293 291 289 289 289 289 290 290 289 289 289 289 290 290
316 319 320 317 318 319 319 323 320 315 322 324 316 316 321 320 322 323 321 321 319 316 322 325 317 318 326 325 312 308 316 316 308 306 303 301 300 299 299 298 297 296 295 294 293 291 289 289 289 288 289 289 290 291 292 294 295 296 297 297 298 297 297 297 298 298 298 298 297 297 296 292 290 289 288 288 288 288 288 288 287 287 287 286 286 287
314 315 318 319 319 319 321 321 316 315 320 316 311 315 318 317 320 321 321 321 316 315 324 327 318 319 329 328 317 312 318 320 313 307 303 301 300 299 299 298 297 296 294 292 291 289 289 289 288 288 288 289 289 290 291 292 294 295 296 297 296 295 295 295 296 296 296 296 296 294 293 290 288 287 287 287 287 287 287 287 286 286 286 286 286 286
313 309 312 317 318 318 320 314 309 314 315 310 315 321 319 320 322 322 324 320 316 322 327 323 319 318 324 329 323 317 318 318 315 309 302 301 300 300 299 299 297 296 295 293 290 289 289 289 288 288 288 288 288 289 290 291 293 294 294 295 294 293 293 293 293 294 293 293 293 292 290 289 287 287 287 287 286 286 286 286 286 286 286 286 286 286
314 312 313 314 314 315 317 313 308 310 310 313 323 324 320 323 323 323 326 321 320 330 326 317 315 315 321 328 323 318 315 312 314 313 305 301 300 299 299 298 298 297 295 294 292 290 289 289 288 288 288 288 288 288 288 289 290 292 292 293 292 290 290 290 290 291 290 290 290 289 288 288 287 287 287 286 286 286 286 286 286 286 286 286 286 286
316 317 316 313 310 313 320 318 311 309 310 316 324 323 323 326 324 325 328 323 324 326 318 313 315 314 319 322 317 317 314 306 307 307 303 300 299 299 299 298 298 297 296 295 294 291 289 288 288 288 287 287 287 287 287 288 289 290 290 290 290 288 287 288 288 288 288 287 287 287 287 287 286 286 286 286 286 286 286 286 286 286 286 286 285 285
320 320 315 312 312 314 319 319 317 316 313 315 320 322 325 326 327 331 328 321 322 320 312 311 315 316 319 318 316 316 309 302 301 302 301 300 299 298 298 297 297 297 297 296 295 292 289 288 288 288 287 287 287 287 287 287 288 288 288 288 288 287 286 287 287 287 287 286 286 286 286 286 286 286 286 286 286 286 286 286 285 285 285 285 285 284
324 325 319 316 316 315 315 315 321 322 314 314 318 320 323 327 331 332 328 326 326 321 314 311 314 323 323 314 309 306 302 298 300 299 299 299 299 298 298 297 297 297 297 296 296 292 289 289 289 288 287 287 287 287 286 287 287 287 287 287 287 286 286 286 286 286 286 286 286 286 286 286 286 286 286 286 286 285 285 285 285 285 284 284 284 284
319 325 323 316 312 312 314 315 318 319 315 314 314 317 320 325 328 323 319 322 321 320 319 314 316 323 319 308 301 301 301 300 300 298 298 300 299 298 297 297 297 297 296 296 296 293 289 289 289 288 287 287 287 286 286 286 286 286 286 286 286 286 286 286 286 286 286 286 286 286 286 286 286 286 286 286 286 285 285 285 285 284 284 284 284 284
319 324 319 312 311 311 312 314 315 316 319 315 313 319 319 317 324 323 315 312 313 318 320 317 319 321 315 310 304 302 304 302 299 299 299 299 298 297 297 297 296 297 296 296 296 292 289 289 288 288 288 287 287 287 286 286 286 286 286 286 286 286 286 286 286 286 286 286 286 286 286 286 286 286 286 286 286 285 285 285 285 284 284 284 284 284
323 327 319 312 313 310 307 312 314 312 316 317 318 321 315 312 320 324 320 319 318 320 321 318 319 320 319 317 309 304 308 307 301 299 299 297 297 297 296 296 296 296 295 295 294 290 289 289 288 288 288 287 287 287 287 287 287 286 286 286 286 286 286 286 286 286 286 286 286 286 287 287 287 287 286 286 286 286 286 286 285 285 285 285 284 284
319 324 320 311 313 311 307 313 316 310 310 316 319 315 314 319 322 319 320 324 322 321 324 322 318 317 318 319 315 312 316 313 304 299 298 298 297 297 297 296 296 295 295 294 294 291 288 289 288 288 288 287 287 287 287 287 287 287 286 286 286 286 286 286 286 286 287 287 287 287 287 287 287 287 287 287 287 287 287 286 286 286 285 285 285 284
316 319 322 312 310 312 311 313 318 315 310 311 313 310 313 321 322 320 319 321 322 322 324 323 319 319 319 319 320 319 317 312 305 300 298 298 297 296 296 296 295 295 294 294 294 292 288 288 289 288 287 288 287 287 287 287 287 287 287 286 286 286 286 286 286 286 287 287 287 287 287 287 287 287 287 287 287 287 287 287 287 286 286 285 285 284
314 316 321 315 310 312 316 316 317 316 313 312 314 314 314 315 317 320 318 317 322 324 324 321 318 321 320 314 315 316 312 307 304 301 299 297 297 296 296 296 295 295 294 293 293 291 288 289 289 288 287 287 287 287 287 287 287 287 287 287 286 286 286 286 286 287 287 287 287 287 288 287 287 287 287 287 287 287 287 287 287 286 286 285 285 284
316 317 323 321 315 316 320 316 312 313 314 314 316 316 315 315 317 320 318 317 319 321 323 321 320 321 317 307 306 310 309 304 302 301 299 298 297 296 296 296 296 295 294 294 293 290 288 289 289 288 288 287 287 287 287 287 287 287 287 287 286 286 286 286 286 287 287 287 287 287 287 287 287 287 287 287 287 287 286 286 286 285 284 284 283 283
319 320 323 323 319 318 316 311 309 312 313 313 315 317 316 315 317 319 319 319 318 318 320 321 321 320 312 305 305 306 306 303 301 300 300 298 298 297 297 297 296 295 294 293 292 289 289 290 289 288 288 288 287 287 287 287 287 286 286 286 286 286 286 286 286 287 287 287 287 287 287 287 287 287 286 286 286 286 285 285 284 284 283 282 282 281
317 320 320 321 322 319 315 312 311 312 312 313 316 317 316 317 319 319 318 319 320 319 320 320 321 319 312 307 305 303 302 302 300 301 301 299 298 298 297 297 296 295 294 294 292 289 289 290 289 289 289 288 288 287 286 286 286 286 286 286 286 286 286 286 287 287 287 287 287 287 286 286 286 286 285 285 285 285 285 284 284 283 283 282 282 281
316 321 321 321 323 322 320 318 316 314 314 316 318 317 317 319 320 317 315 318 320 319 319 320 320 319 314 309 306 303 303 303 301 299 300 301 300 298 297 296 296 295 295 295 294 291 290 290 289 289 289 289 289 287 287 286 286 286 286 286 286 286 286 286 287 287 287 287 287 286 286 286 285 285 285 285 285 285 285 284 284 284 283 283 282 282
318 322 321 320 323 323 323 321 319 318 317 316 316 315 314 316 316 316 317 318 318 318 319 318 319 317 312 309 307 306 306 307 304 300 299 300 299 297 297 296 296 296 296 296 295 293 291 289 289 289 289 289 289 289 288 287 287 287 286 286 286 286 286 287 287 287 287 287 286 286 285 285 285 285 285 285 284 285 285 285 284 284 284 283 283 282
320 321 320 320 321 321 321 318 315 317 319 317 316 315 315 314 313 315 318 317 317 317 317 317 317 317 314 310 308 307 308 309 306 302 302 302 300 298 298 298 297 297 296 295 294 293 291 290 289 289 289 290 290 290 290 289 288 288 287 287 286 286 286 286 287 287 286 286 286 285 285 285 285 285 284 284 284 284 285 285 284 284 283 282 282 281
321 320 320 320 320 319 319 317 315 317 318 318 318 317 316 315 313 314 315 316 316 316 316 317 315 316 316 313 311 311 309 307 305 305 306 305 302 300 299 299 298 297 296 295 294 293 293 291 289 288 289 290 290 290 290 290 290 289 288 288 287 286 286 286 286 286 286 286 285 285 284 284 284 284 284 284 284 284 285 284 284 283 282 281 280 280
321 320 319 319 318 318 317 315 315 316 315 315 317 317 316 315 313 313 312 313 314 315 315 315 314 315 314 313 313 313 309 306 306 305 304 303 302 302 303 303 303 300 297 295 294 293 292 291 289 288 289 290 290 290 290 291 291 290 289 289 288 287 287 286 286 286 286 285 285 284 284 284 284 284 284 284 284 284 284 284 283 282 281 280 280 279
318 318 318 317 317 318 316 313 312 313 312 313 313 314 314 313 311 310 310 310 311 312 312 311 310 311 310 311 313 310 306 305 306 303 301 301 303 306 307 307 307 303 298 296 294 292 291 290 288 289 289 289 289 290 290 291 291 290 290 289 288 288 287 287 286 286 285 285 284 284 284 284 284 284 284 284 284 284 283 282 282 281 280 279 279 278
315 316 315 314 316 316 312 310 310 311 311 312 312 312 311 310 309 307 308 309 308 309 309 308 308 308 306 307 309 307 305 305 304 303 301 302 303 304 303 303 302 301 298 295 293 291 290 289 288 288 289 289 290 290 291 291 291 290 290 289 289 288 288 287 286 286 286 285 284 284 284 284 284 284 284 284 283 283 282 282 281 280 279 279 278 278
313 313 311 311 317 317 309 306 307 307 306 308 311 310 308 309 310 307 306 308 309 309 309 307 308 308 306 305 304 304 305 303 302 302 302 301 301 301 302 303 301 299 298 295 292 291 291 289 287 287 288 288 290 290 291 292 291 290 290 289 289 288 287 287 286 286 285 285 284 284 284 284 284 283 283 283 283 283 282 281 280 279 279 279 278 278
311 312 311 312 317 315 305 302 304 304 307 311 311 309 307 307 308 306 304 305 306 307 309 309 308 307 305 304 303 303 303 302 301 302 301 301 301 300 300 301 300 300 298 294 292 291 290 288 286 287 288 289 290 291 292 292 292 291 290 290 289 288 287 286 286 286 285 285 284 284 284 284 284 283 283 283 282 281 281 280 279 279 278 278 278 278
309 311 312 312 316 312 301 299 304 308 313 313 307 306 307 306 307 307 306 305 304 305 306 306 305 303 303 303 303 302 301 300 301 301 299 299 300 300 300 299 300 300 296 292 291 289 286 286 287 288 289 290 291 292 292 292 291 291 290 289 288 287 286 286 286 286 285 285 284 284 284 283 283 283 282 282 281 280 279 279 278 278 278 277 277 277
309 310 310 309 311 306 299 301 308 312 312 306 299 299 302 303 304 305 304 302 301 302 303 302 301 301 302 302 301 299 299 298 298 298 298 297 297 299 300 300 299 300 297 295 293 288 284 285 287 287 289 290 291 291 291 291 290 289 288 287 287 286 286 286 285 285 285 284 284 283 283 283 282 282 281 281 280 279 279 278 278 277 277 277 276 276
309 309 308 307 305 302 301 305 311 311 305 300 296 295 297 298 299 299 300 299 298 298 299 299 300 300 300 299 297 296 296 294 293 294 295 295 294 295 299 302 301 300 297 295 292 289 287 288 289 290 291 292 291 291 290 290 289 288 287 286 286 286 285 285 285 284 284 283 283 283 283 282 282 281 280 280 279 279 278 277 277 276 276 276 275 275
307 308 308 308 306 305 304 305 307 308 305 304 302 298 296 298 300 300 301 302 299 297 296 297 299 299 298 296 295 293 293 292 293 295 295 293 292 292 293 295 296 294 291 290 291 291 291 292 292 292 292 292 291 291 290 289 288 287 286 286 286 285 285 284 284 283 283 283 283 282 282 281 281 280 280 279 278 278 277 277 276 276 275 275 275 275
304 306 308 310 309 307 306 306 306 307 308 309 306 300 296 299 301 299 299 302 302 300 297 298 299 298 296 295 294 292 291 294 296 296 294 293 292 290 289 287 286 287 289 290 291 291 291 291 291 291 291 291 290 290 289 288 287 287 286 286 285 284 284 283 283 283 282 282 282 282 281 281 280 280 279 278 277 277 276 275 275 275 274 274 274 274
302 303 305 308 308 305 306 308 307 308 309 308 303 297 294 296 299 298 298 301 302 301 298 297 298 298 296 295 293 292 293 296 298 296 294 294 291 290 290 288 285 286 289 289 289 289 289 289 289 289 289 289 289 288 288 288 287 286 286 285 284 283 283 283 282 282 282 282 281 281 280 280 279 279 278 277 276 275 275 275 274 274 273 273 273 273
301 303 303 305 307 306 306 307 307 307 307 301 297 293 292 294 298 299 300 302 302 298 295 296 299 300 297 294 291 292 295 298 299 297 296 294 289 287 288 289 287 286 288 289 289 289 289 288 288 288 288 288 288 288 288 287 286 286 285 284 283 283 282 282 282 282 281 281 280 280 279 279 278 277 276 276 275 274 274 274 273 273 273 273 272 272
300 302 302 303 306 306 307 307 306 306 304 298 294 293 293 295 298 299 301 303 302 296 291 295 302 299 294 292 291 292 295 296 295 296 295 292 291 288 286 287 287 288 289 289 289 289 288 288 289 289 289 289 289 288 287 286 285 285 284 283 282 283 283 282 281 281 280 280 279 279 279 278 277 276 275 275 274 274 273 273 273 272 272 272 271 271
301 301 301 303 304 304 305 306 305 305 303 298 293 291 293 296 300 301 301 299 299 298 292 293 299 297 291 292 292 292 294 293 291 293 293 293 294 292 287 285 286 287 287 288 288 288 288 288 288 288 289 288 288 288 287 286 285 284 283 282 283 283 282 281 281 280 280 279 279 278 278 277 276 275 274 274 273 273 273 272 272 272 271 271 271 270
302 303 301 302 303 302 303 303 304 304 300 295 293 292 294 297 301 303 299 293 294 298 295 292 295 293 291 292 291 290 292 291 290 291 291 291 293 291 286 284 285 285 286 286 287 288 288 288 288 288 288 288 287 287 286 285 284 283 282 282 283 282 281 280 280 279 279 278 278 277 276 275 274 274 273 273 273 272 272 272 271 271 271 270 269 268
300 302 302 302 302 302 302 303 303 303 298 293 295 296 296 297 300 303 301 295 292 294 293 294 295 290 289 293 293 290 290 290 289 290 290 290 291 289 285 284 284 285 286 287 288 288 288 287 288 288 287 287 286 286 285 284 284 282 282 282 282 281 280 279 279 278 278 277 277 276 275 274 273 273 273 272 272 272 271 271 271 271 270 269 268 266
298 299 301 302 301 299 300 301 299 297 294 293 295 298 297 296 298 300 300 299 296 293 291 295 298 292 287 289 292 290 290 290 290 290 289 290 290 288 286 284 284 284 285 286 287 287 287 287 287 286 285 285 285 284 284 284 283 282 282 282 280 279 279 278 278 277 277 276 276 275 274 273 273 272 272 271 271 271 271 271 271 270 270 268 267 265
295 293 294 297 298 296 296 297 295 293 292 292 295 297 296 295 296 297 298 298 298 295 291 292 297 295 289 288 290 291 292 292 290 289 288 288 288 286 283 282 284 285 285 284 285 286 286 286 285 284 283 283 283 283 283 282 282 282 281 281 279 278 278 277 277 276 276 275 274 274 273 272 272 272 271 271 270 270 270 270 270 269 268 267 265 264
292 291 292 295 297 296 295 294 293 293 293 292 293 295 294 294 294 294 295 295 295 295 293 291 293 293 289 288 291 293 293 292 290 289 288 287 288 286 283 281 283 284 284 285 286 285 284 283 282 282 282 282 282 282 282 281 281 281 280 279 278 277 277 276 276 275 275 274 274 273 272 272 271 271 270 270 270 270 270 270 269 268 267 266 265 263
294 292 293 294 295 294 293 291 290 291 291 291 292 293 294 294 294 292 292 292 292 292 293 290 288 289 290 291 292 293 294 292 290 290 289 287 288 286 282 281 283 284 284 285 285 284 283 282 282 282 281 281 282 282 281 281 280 279 278 278 277 277 276 276 275 274 274 274 273 272 271 271 270 270 270 270 270 270 269 269 269 268 268 267 265 263
294 293 294 294 293 292 291 289 288 290 290 290 291 292 292 293 293 292 291 291 290 291 291 288 286 287 289 291 291 291 292 292 290 289 288 288 288 285 283 282 283 284 284 285 284 283 283 282 282 281 281 282 282 282 281 281 280 278 278 277 276 276 276 275 274 274 273 273 272 271 270 270 269 269 269 269 269 269 269 269 269 268 268 267 266 264
292 293 293 292 292 293 292 290 290 292 293 292 291 291 291 290 290 291 291 291 290 291 291 290 288 286 285 286 287 289 292 293 289 287 288 288 287 284 283 283 283 283 284 284 283 283 282 283 282 282 281 281 281 281 281 280 279 277 277 276 276 275 275 274 273 273 272 272 271 270 269 269 269 269 268 268 268 268 268 269 269 268 266 265 265 265
291 292 292 292 292 293 293 292 291 292 293 293 292 291 291 290 289 290 291 291 291 290 289 290 290 289 288 285 283 285 291 291 287 285 287 287 284 283 284 284 284 284 284 284 283 282 282 282 281 280 280 280 280 280 280 279 278 276 276 275 275 275 274 273 272 272 272 271 270 269 269 268 268 268 268 268 268 268 268 268 269 269 268 266 265 265
Wind_Speed
3 3 3 7 7 8 10 11 9 5 6 6 5 4 4 5 6 3 2 6 1 1 5 5 6 8 11 8 2 3 4 6 4 4 4 3 4 3 4 4 4 5 5 9 15 17 18 18 18 19 19 21 23 24 24 24 25 25 24 25 26 24 23 23 24 24 24 24 25 27 28 28 28 26 26 25 24 24 23 21 20 20 20 19 19 19
3 5 10 11 7 8 9 8 5 3 5 3 3 3 3 4 6 4 2 5 1 2 5 2 3 9 11 5 3 2 3 3 1 4 3 3 3 2 3 4 4 3 4 9 14 16 17 18 19 20 21 22 23 23 24 25 24 25 26 26 27 26 24 24 24 23 24 24 24 27 28 28 28 27 26 27 26 24 22 20 19 18 18 18 18 18
2 6 13 7 5 5 1 4 6 5 4 2 2 2 4 3 4 6 3 4 2 2 4 3 2 9 9 1 4 3 3 1 1 3 3 3 4 3 3 3 4 3 4 6 9 12 15 17 19 20 21 22 22 22 23 23 24 25 26 26 27 27 26 27 26 26 27 27 26 26 27 27 28 29 28 27 26 24 23 23 21 20 19 18 18 18
3 7 10 4 7 6 3 3 6 4 3 3 3 2 5 2 0 4 4 4 2 1 2 1 2 8 7 2 5 4 3 3 3 4 4 3 3 3 3 2 4 4 4 5 6 9 12 16 18 19 19 20 22 23 23 23 23 25 26 25 25 26 26 26 26 27 27 27 27 28 28 27 28 28 26 25 25 25 25 25 24 23 22 20 20 20
6 6 2 6 7 7 4 3 6 5 3 3 5 6 6 4 5 6 3 4 2 3 1 2 3 6 5 2 0 1 2 3 4 4 4 4 2 3 3 3 4 4 4 4 4 6 10 14 15 16 18 20 23 24 22 21 22 24 25 25 24 24 24 24 23 23 23 24 25 25 25 25 26 26 26 27 27 27 26 26 26 25 23 22 22 21
7 4 3 6 4 5 6 4 5 7 3 3 5 10 10 7 7 5 2 4 3 4 2 1 2 5 5 4 4 3 2 2 3 3 3 2 3 3 3 3 3 4 3 3 3 5 8 11 13 15 17 19 22 23 22 21 21 24 25 25 25 25 24 23 22 21 20 21 22 23 24 25 27 29 28 28 28 28 28 28 26 25 24 23 22 22
4 3 2 5 5 5 5 4 6 7 5 2 5 8 9 7 5 4 2 2 1 3 2 2 2 4 5 5 3 4 3 1 1 2 1 1 2 2 2 2 3 3 3 3 4 6 8 10 12 15 16 18 19 20 22 22 22 24 25 25 25 26 25 25 24 22 22 24 25 27 29 29 30 30 28 27 28 28 28 28 28 28 28 26 25 25
4 3 1 5 5 5 4 4 6 8 7 3 4 5 6 7 7 6 6 4 3 3 3 2 2 3 4 4 2 4 3 2 1 1 2 2 2 2 2 2 2 2 2 2 4 5 7 9 11 13 15 16 17 19 22 24 24 25 25 26 26 26 26 25 24 24 24 26 28 29 31 31 31 31 29 28 28 28 27 28 29 30 30 29 29 28
3 4 5 7 4 4 5 4 8 10 5 4 2 6 6 6 6 5 6 3 1 1 4 4 1 2 5 4 1 3 3 6 5 6 6 5 4 4 3 3 2 2 1 2 3 3 6 8 10 12 14 15 16 19 22 24 25 26 26 27 27 27 27 26 26 26 27 27 28 29 31 33 32 31 30 28 28 27 27 28 29 28 28 28 28 28
1 4 6 7 5 6 4 1 6 9 3 3 6 7 5 5 5 4 5 3 2 1 5 6 4 2 5 5 2 2 4 7 6 6 6 6 5 5 4 4 4 2 2 3 3 4 6 8 10 11 14 16 17 19 21 24 26 27 27 27 28 28 28 27 27 27 28 28 29 30 31 32 31 29 28 27 27 26 26 27 27 27 27 26 26 26
2 1 2 5 4 5 4 3 2 4 3 5 6 6 6 5 5 3 2 4 2 3 6 7 5 4 4 5 4 4 4 4 5 4 5 5 5 6 5 4 4 3 3 3 3 5 7 9 10 12 14 16 17 18 20 23 25 26 27 26 28 29 28 27 27 27 28 28 28 29 29 30 29 26 26 26 26 25 25 26 26 25 25 25 25 25
4 1 2 2 2 4 6 4 2 2 4 5 4 4 3 3 3 4 4 3 0 5 5 4 2 3 4 5 4 5 4 4 5 5 8 9 8 7 6 5 5 4 4 3 3 4 7 9 10 12 14 15 17 18 19 22 24 25 26 26 27 28 26 26 26 26 27 27 27 27 27 27 26 25 25 26 26 25 25 25 24 23 23 23 24 24
3 4 3 2 1 4 6 4 3 3 3 4 4 6 4 2 2 2 3 0 3 6 4 3 2 2 5 6 5 5 4 3 3 4 8 11 10 8 7 6 5 4 4 4 3 3 5 7 9 10 13 14 16 17 18 20 23 24 25 25 27 27 26 25 25 26 26 27 26 26 26 26 25 25 25 26 25 24 24 23 22 23 23 23 23 23
3 5 1 1 2 3 7 6 2 1 2 4 5 5 4 2 1 2 3 2 4 4 2 3 2 2 4 4 4 4 2 3 4 5 6 8 10 9 8 6 5 5 4 4 4 4 5 7 8 10 12 13 15 16 17 20 22 23 24 24 26 26 25 24 24 25 26 26 26 25 25 25 24 25 25 25 24 23 22 22 21 22 22 22 22 22
3 4 4 6 3 4 9 6 5 6 4 3 3 5 4 4 4 4 4 3 4 3 2 2 1 3 3 2 3 4 3 4 4 4 5 6 7 7 6 6 5 5 5 5 4 5 6 7 8 10 11 12 14 16 18 19 21 23 23 23 25 25 23 23 24 24 25 26 25 24 24 24 23 24 24 23 22 21 20 20 19 20 19 19 20 19
3 5 6 3 1 6 8 4 5 7 3 2 2 4 2 4 4 2 2 5 3 2 3 2 3 4 4 1 3 3 3 4 4 1 5 7 6 7 6 6 6 6 6 5 4 5 7 9 9 10 12 13 14 15 17 19 20 22 22 23 23 23 22 22 23 23 24 24 23 23 23 22 22 22 22 21 21 20 19 18 18 18 18 18 18 18
2 5 5 2 2 2 4 3 3 3 3 2 2 3 4 4 6 4 1 1 4 1 4 2 3 4 1 1 2 2 3 3 4 2 6 7 7 8 7 7 7 7 6 6 5 6 9 10 10 11 12 13 14 15 17 18 19 20 21 22 22 22 22 21 21 22 22 22 22 21 21 20 20 20 20 20 19 18 18 17 17 17 17 17 18 19
4 3 4 1 1 2 1 2 4 3 3 5 3 5 4 2 4 4 1 3 3 2 4 1 3 4 1 2 2 2 2 3 2 2 5 5 6 8 8 8 8 8 7 6 6 7 10 12 12 13 13 13 15 15 16 17 18 18 19 19 20 21 21 20 20 20 19 19 20 20 19 19 19 19 19 19 18 17 16 16 17 16 17 17 18 19
4 2 5 1 2 2 3 3 3 4 2 4 4 3 3 3 2 2 2 2 1 3 4 2 3 3 4 4 2 4 8 8 6 5 5 7 8 9 9 9 9 8 6 6 6 6 9 12 14 15 15 14 15 15 16 16 16 17 17 18 19 19 19 18 17 18 17 17 18 18 18 17 17 16 16 16 15 14 14 15 15 15 15 16 17 17
3 2 3 2 1 1 3 2 3 2 1 2 1 1 1 2 3 3 3 3 3 3 4 4 4 3 5 5 7 10 11 10 9 7 8 10 11 11 10 10 10 8 7 7 6 6 9 14 16 16 17 16 16 15 15 16 16 16 17 17 17 17 17 16 15 15 16 16 16 15 15 14 13 13 13 13 12 13 13 14 14 15 16 16 17 18
2 2 3 2 2 2 2 3 6 6 4 2 3 3 2 1 2 1 1 3 3 3 2 4 6 6 4 3 6 7 6 8 11 10 10 10 11 12 10 8 8 8 8 8 6 6 10 15 16 17 17 16 16 15 15 16 15 16 15 15 15 15 15 14 13 13 13 13 12 11 11 11 10 11 11 11 11 12 13 14 14 15 16 16 17 18
3 3 3 2 0 3 4 4 4 5 4 4 5 6 6 4 3 2 3 2 3 2 4 4 7 7 3 1 2 3 4 5 8 8 9 10 10 9 7 6 7 7 8 7 6 7 11 14 17 18 18 17 17 16 16 16 15 15 15 14 14 13 13 12 11 11 10 10 9 8 8 8 8 8 8 9 10 11 12 13 14 15 16 16 17 18
3 3 3 3 3 4 5 4 3 4 2 2 3 3 5 5 5 4 6 3 2 1 1 3 3 5 1 1 1 3 5 4 6 7 7 7 7 6 6 7 7 7 6 5 6 8 12 15 17 18 18 18 19 18 17 16 16 15 15 14 13 12 12 11 10 10 9 8 7 6 5 5 5 5 6 7 8 10 11 13 15 16 17 18 19 20
2 3 3 1 3 2 4 4 2 1 1 1 3 1 4 4 2 2 3 2 2 3 1 2 3 4 2 1 1 2 2 3 5 6 6 5 5 7 8 8 7 6 5 4 6 9 12 15 16 18 19 20 20 19 18 17 16 15 14 13 13 12 12 11 11 10 8 7 5 4 3 2 1 3 4 6 7 9 11 13 15 17 19 20 21 22
4 3 3 2 2 3 3 2 2 2 1 3 3 2 3 3 5 3 2 2 1 4 4 2 5 4 2 2 2 3 2 4 4 4 5 5 6 7 8 7 6 5 5 5 6 8 11 14 16 18 20 21 21 20 19 18 17 15 14 14 14 13 12 12 12 11 9 7 5 4 2 1 2 2 4 5 7 9 11 14 17 19 21 22 24 25
4 3 4 5 6 7 5 3 4 3 2 2 2 3 4 5 6 3 2 2 4 4 6 5 7 3 2 3 2 4 2 3 4 4 4 4 5 5 5 5 5 5 7 7 7 7 9 12 16 19 21 22 23 23 22 21 18 16 15 15 15 14 14 14 13 11 9 8 6 6 5 5 5 5 5 6 8 10 13 16 19 21 23 24 25 26
3 2 4 6 8 7 5 3 2 2 4 3 3 4 5 5 6 4 2 4 4 3 5 8 5 2 2 3 2 2 1 4 4 4 4 5 5 5 4 5 5 6 7 7 7 7 8 11 15 19 21 22 24 25 25 24 21 19 18 17 16 16 15 15 14 12 11 11 10 9 9 9 8 7 7 7 9 12 15 17 20 22 23 25 25 26
4 2 5 5 7 6 4 3 2 2 2 4 4 5 7 6 7 8 7 6 4 3 8 8 5 5 7 6 6 6 6 6 5 5 7 6 5 5 4 5 6 7 6 6 7 9 10 11 13 17 20 23 24 24 25 25 23 21 20 19 18 18 17 16 16 15 15 15 14 13 13 12 10 9 8 9 11 13 16 18 20 22 23 24 25 25
4 3 4 4 6 9 5 4 5 5 4 6 8 11 13 12 12 13 13 10 8 8 10 4 7 8 8 6 8 10 8 7 6 6 5 3 4 5 5 5 6 7 7 7 9 11 10 9 11 16 21 22 22 23 24 25 24 23 22 21 20 19 19 18 18 18 18 18 17 16 15 13 11 10 9 11 13 15 17 19 21 22 23 24 25 25
3 3 3 5 6 9 7 4 6 7 7 7 11 15 15 13 13 13 13 11 9 9 8 1 5 9 7 6 9 8 5 5 4 2 2 3 3 4 5 6 7 7 7 9 10 9 9 9 13 18 20 21 22 23 25 25 25 25 24 23 22 22 21 21 21 21 21 20 19 17 16 13 11 11 11 12 15 17 19 20 22 22 23 24 25 25
2 1 2 4 4 6 4 4 5 7 8 8 14 15 9 6 7 10 10 6 4 6 8 5 7 11 5 5 6 5 3 4 4 4 4 5 5 5 6 7 8 8 8 8 8 7 7 9 12 16 18 21 24 25 26 26 25 25 25 24 25 24 23 23 23 23 22 21 20 18 16 14 12 12 13 14 16 18 20 21 22 23 24 24 25 26
3 1 2 3 4 4 2 4 5 3 2 8 17 14 7 7 7 7 6 6 7 9 8 7 9 10 3 5 4 5 5 6 7 8 7 7 6 6 8 8 8 8 8 8 7 7 7 8 11 15 18 21 24 25 26 26 25 25 26 25 25 24 23 23 22 22 21 20 19 18 16 14 13 13 14 16 18 20 21 22 23 24 25 25 26 26
4 4 2 3 4 2 1 2 4 3 1 9 14 11 12 13 9 3 3 7 11 9 7 7 9 6 2 5 4 6 6 6 8 8 7 7 6 6 8 8 7 7 7 7 7 7 8 9 13 17 20 22 24 25 25 26 25 26 26 25 25 23 22 21 20 20 20 19 19 17 15 14 14 14 15 17 19 20 21 22 23 24 25 26 26 27
4 5 4 3 3 1 2 2 4 4 6 7 5 5 14 17 14 10 9 10 10 7 5 4 3 1 3 5 7 8 8 6 7 7 6 6 6 6 7 7 7 7 6 6 6 7 9 12 15 18 20 21 22 23 22 23 24 24 24 23 23 21 20 20 19 19 19 19 18 16 15 14 14 15 16 18 19 20 21 22 23 24 24 25 26 26
6 6 3 2 2 1 2 3 4 6 7 4 4 2 4 8 10 10 9 7 7 8 6 4 3 3 6 8 8 7 6 4 4 6 6 5 6 6 6 7 8 7 6 5 6 7 10 13 15 16 18 20 20 19 19 21 22 22 21 20 20 19 19 19 19 19 19 18 17 15 14 14 15 16 17 18 20 21 22 23 24 24 24 25 25 26
7 6 2 2 2 2 2 5 6 4 2 2 4 4 3 4 4 2 4 7 8 9 8 7 7 9 10 10 6 2 2 3 3 4 6 6 6 7 7 8 8 7 7 8 10 11 14 16 16 17 18 18 18 18 20 21 21 21 19 18 18 19 19 19 19 19 18 17 15 14 14 14 15 16 18 19 20 22 22 23 23 23 24 25 25 25
5 5 3 3 4 3 3 6 4 4 3 3 2 2 3 5 6 5 3 7 7 7 8 8 9 13 11 6 1 2 2 4 5 5 6 7 7 8 8 8 8 9 10 11 13 13 14 15 15 15 16 16 17 19 20 20 20 19 18 18 19 19 20 20 20 19 17 16 14 13 13 14 15 17 18 20 21 21 22 22 23 23 23 25 26 26
2 4 4 5 4 3 3 4 2 3 6 5 4 3 2 4 6 7 3 6 6 5 10 11 11 12 8 3 3 3 4 3 4 6 5 7 7 6 6 8 9 11 12 12 13 12 12 13 13 14 14 14 15 17 17 17 17 17 18 19 20 21 21 20 20 18 16 15 14 13 13 14 16 18 19 20 20 20 21 22 22 22 22 23 26 27
2 1 1 2 2 2 3 4 4 5 5 2 3 2 1 3 7 7 2 6 5 6 10 10 10 9 6 5 5 5 5 2 6 7 5 7 8 7 7 8 10 12 13 12 13 14 13 13 13 13 13 14 15 16 15 15 17 18 20 21 21 21 21 21 19 17 15 14 13 13 14 15 16 18 18 19 19 19 21 21 21 22 22 23 25 26
2 1 1 3 3 3 4 3 3 4 3 1 3 2 1 3 8 8 2 7 6 6 7 9 8 8 6 7 6 6 6 6 6 6 5 6 7 8 10 10 11 14 15 14 14 13 13 13 14 14 16 17 17 17 17 17 19 20 21 21 21 22 22 21 18 16 15 14 13 13 14 15 17 17 17 18 19 19 20 20 21 21 22 23 24 25
1 0 1 3 4 5 6 4 2 3 3 3 4 5 5 4 7 4 6 7 5 6 6 7 9 7 7 8 7 6 7 8 5 3 3 6 6 7 12 15 15 15 15 15 15 14 14 15 17 17 19 19 19 19 20 20 21 22 22 21 22 23 22 19 17 15 14 13 12 13 15 16 17 17 17 17 18 20 20 19 20 21 22 23 24 25
2 1 1 2 3 3 4 3 3 5 4 6 5 2 3 4 2 4 6 3 6 8 7 7 7 6 8 9 9 8 8 7 4 2 3 6 6 7 12 15 14 12 13 13 14 15 16 17 18 18 19 19 20 21 22 23 23 23 23 23 25 24 21 18 17 15 14 13 13 14 15 16 16 16 16 17 18 19 20 19 19 21 21 22 24 25
4 3 1 3 3 1 1 3 4 5 3 11 10 1 2 4 5 5 2 1 4 7 7 7 7 6 8 9 9 9 8 5 4 4 4 4 5 7 9 11 13 14 14 14 14 17 19 19 19 21 21 20 22 23 24 25 25 24 24 26 26 23 20 18 17 15 14 13 14 15 15 15 15 15 15 16 17 19 20 20 19 20 21 21 23 24
3 3 3 4 3 4 4 6 5 2 4 11 12 5 6 7 5 5 6 4 3 4 6 7 7 8 9 9 9 9 7 6 6 6 5 5 6 7 8 10 13 15 16 17 19 20 21 22 22 22 22 22 23 24 26 27 26 26 26 27 24 21 20 18 16 15 14 14 14 15 15 15 15 14 15 16 17 18 19 19 20 20 20 20 21 23
3 4 5 3 3 4 5 6 4 1 4 8 7 5 8 8 5 6 7 6 4 5 5 5 6 8 9 9 8 7 6 7 8 7 6 7 7 7 9 11 14 16 18 20 20 20 23 24 24 23 23 24 25 26 27 28 27 27 27 26 23 21 20 17 16 15 15 14 15 15 15 15 14 14 14 15 16 18 19 19 20 21 21 20 21 22
2 2 3 2 2 4 3 3 3 1 2 6 6 5 6 6 4 5 6 5 5 6 6 6 7 8 9 9 7 6 7 8 8 7 7 7 7 8 9 11 15 18 19 19 19 21 23 24 22 22 23 24 26 27 28 28 28 28 27 24 22 21 19 17 16 16 15 15 15 15 15 15 15 14 14 15 15 17 17 18 19 20 21 21 21 22
2 2 3 1 2 4 3 2 4 3 4 8 8 6 4 4 5 6 5 5 5 6 7 8 7 6 8 9 8 8 8 8 8 7 7 6 7 8 9 11 16 20 21 23 24 23 22 22 22 22 24 26 28 28 29 29 29 28 25 23 21 20 18 17 17 17 16 16 15 15 15 16 15 14 14 14 15 16 17 16 18 20 21 21 22 22
2 3 3 3 4 3 2 2 1 1 2 5 7 6 5 7 7 6 6 6 5 5 6 6 4 5 6 7 9 9 8 7 8 8 7 7 7 8 9 13 18 20 23 26 26 22 21 23 25 26 27 29 30 30 30 29 29 28 26 24 22 20 19 18 18 17 17 16 16 16 15 15 15 15 15 15 15 16 16 16 16 19 20 20 20 21
2 3 3 3 3 2 1 1 1 4 4 6 7 7 8 8 7 6 6 5 5 5 5 4 4 6 7 7 8 8 7 8 8 8 9 8 7 8 11 16 19 21 23 24 23 22 23 26 28 29 30 31 31 30 30 30 30 29 27 25 23 21 20 19 19 18 17 17 16 16 15 15 15 15 15 16 16 16 16 15 16 18 20 20 18 19
3 4 3 3 2 4 3 5 5 2 3 6 8 11 12 10 7 5 5 5 6 7 7 6 6 6 7 8 8 8 7 9 9 8 8 8 9 12 15 17 19 20 22 22 20 21 24 27 29 30 31 31 30 30 31 31 30 29 28 26 24 22 20 19 19 18 18 17 17 16 15 15 15 14 15 16 16 17 17 16 15 16 19 20 18 17
5 7 6 5 5 5 5 8 8 6 5 6 8 10 11 8 6 7 8 8 9 9 8 8 8 7 7 10 11 11 9 9 10 10 8 9 14 18 18 18 19 20 21 21 19 21 25 27 28 29 30 30 30 30 31 31 30 30 29 27 24 22 20 19 19 19 19 19 18 16 15 16 15 15 15 16 16 17 18 18 16 14 14 16 15 15
Wind_Direction
122 127 198 224 209 190 198 202 202 183 134 143 145 152 191 220 261 254 236 275 226 195 265 240 235 254 265 278 28 30 47 80 98 91 79 64 56 44 48 41 36 43 22 21 30 35 38 42 46 50 55 59 63 64 67 72 76 80 85 89 89 91 97 100 99 98 96 94 92 90 86 81 77 76 75 72 68 66 64 60 56 53 53 53 52 51
102 168 225 231 198 185 206 203 188 151 133 135 153 187 249 227 253 267 241 295 324 186 271 299 274 269 265 277 23 36 88 83 133 129 122 107 89 58 61 50 36 32 15 28 32 33 37 43 48 52 55 58 58 58 61 66 71 78 84 86 87 89 92 93 93 93 92 91 92 91 89 86 81 77 75 73 70 68 67 63 58 55 52 49 48 45
112 220 239 233 140 127 122 171 183 203 187 168 134 163 275 241 266 291 295 338 14 175 273 327 298 274 274 6 51 29 92 76 331 118 125 126 110 72 66 57 47 41 24 29 25 25 34 43 50 55 56 59 61 60 62 65 71 78 83 84 88 90 92 92 93 94 94 94 95 94 92 90 86 80 78 77 73 70 69 66 64 62 58 54 52 49
174 245 245 184 125 127 87 130 163 188 213 194 157 172 253 237 95 283 297 342 19 133 258 269 298 279 280 56 61 30 81 77 41 69 66 75 102 95 90 71 63 58 38 31 16 17 32 43 50 53 55 62 68 67 64 64 69 76 81 84 89 92 94 95 96 97 98 99 97 95 93 92 90 86 83 80 73 69 67 65 64 61 60 60 60 59
218 253 221 119 133 162 165 140 148 173 235 229 196 205 234 225 208 229 283 328 345 13 30 117 340 295 278 270 202 43 76 75 53 65 60 48 68 90 87 64 58 64 52 38 16 12 29 41 49 54 58 65 70 71 67 65 69 77 83 86 89 92 94 96 98 100 103 103 102 101 97 93 88 81 75 72 68 66 65 63 62 61 61 61 63 63
250 250 114 108 134 167 174 192 183 182 208 281 227 213 222 221 219 228 344 6 3 344 328 84 318 290 308 294 218 175 109 75 50 64 78 60 54 66 71 59 52 54 53 40 27 25 35 44 53 58 61 65 70 74 75 75 76 82 88 90 92 93 94 96 98 103 107 106 104 101 93 87 81 72 66 66 66 67 67 65 64 63 63 63 64 64
251 260 124 138 147 145 168 228 225 173 147 270 242 208 213 208 201 206 144 97 181 252 294 73 182 255 315 311 229 162 129 107 70 76 114 114 79 84 87 75 64 50 42 36 33 36 42 48 52 57 61 65 70 77 84 86 85 86 90 92 93 93 93 95 97 100 100 98 96 92 87 84 82 79 74 74 74 74 74 73 70 68 66 65 65 65
208 225 149 152 140 140 177 236 219 160 138 233 241 156 165 178 187 191 163 170 225 245 321 4 157 238 287 280 242 136 144 241 229 215 227 193 157 138 138 114 100 84 66 60 45 38 45 52 56 61 66 71 77 83 89 91 90 90 90 92 93 93 94 95 95 94 93 92 92 91 90 88 87 87 85 84 82 81 80 77 74 71 69 67 66 66
168 193 200 175 156 180 204 223 186 160 155 241 193 119 134 154 162 149 138 170 259 10 301 292 170 244 265 267 293 118 201 250 215 210 220 195 185 172 162 162 141 140 123 96 79 59 59 65 69 74 80 84 87 89 91 93 94 95 94 94 93 93 94 95 94 92 91 92 93 93 93 92 91 91 91 89 86 83 81 79 75 73 71 68 67 66
95 223 203 160 165 204 204 252 180 168 189 198 123 92 74 73 81 88 113 128 61 55 243 237 188 210 271 280 259 152 238 247 205 203 208 189 192 185 173 178 166 156 128 106 98 87 83 85 87 91 95 95 95 95 97 98 99 98 98 96 94 94 95 95 95 94 94 95 94 94 96 96 96 94 93 90 85 81 78 76 73 71 69 67 65 64
326 292 182 149 176 190 138 77 161 155 147 143 109 69 49 37 39 38 61 94 72 273 245 234 208 203 264 277 236 199 222 206 162 172 192 185 197 194 188 186 174 167 150 130 111 104 103 103 103 104 102 100 102 103 103 102 102 101 100 99 98 97 98 98 97 97 97 97 96 97 98 98 96 94 92 86 80 77 75 72 69 67 65 63 61 60
335 336 251 218 164 130 101 72 50 78 107 116 95 86 81 355 10 23 359 44 151 255 264 277 257 196 229 259 245 226 225 185 159 173 184 186 192 191 190 187 179 176 169 160 137 121 117 112 111 110 106 106 106 105 104 104 104 104 103 104 102 100 100 100 99 99 98 97 97 97 96 95 92 90 86 82 77 73 70 68 66 64 62 59 57 55
297 234 260 300 188 141 114 84 39 30 69 100 106 110 108 332 356 359 306 269 224 247 271 309 292 215 235 247 233 209 203 216 220 202 187 184 184 183 187 186 178 173 175 178 167 145 128 119 115 113 111 111 109 107 107 107 107 107 107 107 105 102 102 102 101 99 98 96 94 94 92 91 89 85 82 79 75 71 67 64 61 58 55 52 50 48
283 288 272 163 257 188 153 149 155 179 162 153 150 138 137 140 131 250 258 260 263 259 284 297 273 250 263 266 240 216 224 268 254 238 214 191 180 178 180 176 172 173 184 191 181 167 147 134 127 122 119 116 114 114 114 113 113 113 111 111 109 106 106 105 103 101 98 96 94 93 91 89 87 84 80 76 72 69 65 61 59 56 52 49 46 43
210 288 212 180 224 187 175 179 158 144 150 183 167 136 147 158 169 214 215 208 247 281 306 289 226 197 213 258 266 256 286 302 278 243 208 183 169 164 161 160 169 181 193 196 184 178 165 149 142 135 128 125 122 123 122 120 120 118 116 115 113 112 110 108 106 103 101 98 96 93 91 87 84 81 78 75 70 67 64 60 58 55 51 48 44 39
176 264 251 237 259 167 178 190 122 115 128 213 135 109 167 189 156 163 187 171 178 304 297 224 214 219 190 223 297 300 327 340 344 28 151 157 155 153 161 170 180 192 198 194 183 183 176 161 153 146 139 135 133 132 130 128 126 124 122 120 117 115 113 110 107 104 102 100 96 91 88 84 81 78 75 72 68 63 60 56 52 49 45 42 37 32
142 271 282 347 5 155 183 196 118 125 175 161 136 177 218 188 121 111 250 64 85 266 270 194 241 286 337 301 298 357 360 351 1 62 144 156 159 162 177 185 190 199 197 191 187 184 178 168 161 155 150 147 144 142 139 135 133 131 129 126 123 118 115 111 108 105 102 99 94 88 84 80 76 73 70 66 62 58 53 49 44 39 34 30 26 21
151 261 293 90 136 287 263 133 69 40 126 127 181 211 197 137 93 102 225 346 50 240 271 217 228 263 240 255 297 11 297 264 244 190 158 161 169 178 192 195 197 202 194 190 190 186 179 171 165 163 160 156 154 150 145 141 139 136 134 131 127 122 117 113 109 105 101 96 92 86 81 77 72 68 65 61 56 50 44 39 35 28 23 20 16 11
146 227 298 53 165 294 2 96 66 2 56 124 189 194 123 145 161 107 166 224 209 239 278 289 260 244 200 208 214 210 228 222 205 193 180 182 186 192 199 200 202 201 194 193 192 186 180 175 172 168 166 163 160 156 151 147 145 142 139 136 130 123 118 115 110 105 99 94 89 84 80 75 70 66 61 56 50 41 36 31 26 21 16 12 7 2
125 180 269 309 216 243 29 103 171 238 352 62 93 91 52 158 166 156 160 168 176 221 276 297 304 273 222 198 181 200 214 197 181 190 197 197 196 199 199 197 198 197 196 197 193 186 180 180 178 173 171 169 165 162 158 155 153 149 146 142 134 126 120 117 113 107 100 93 88 84 81 75 69 64 58 52 45 36 31 27 20 15 12 7 1 357
107 181 234 305 328 149 167 209 189 186 181 149 147 174 209 116 116 191 197 134 141 166 215 266 279 271 249 194 184 214 230 191 181 188 195 201 204 205 203 195 195 197 199 198 189 181 181 181 180 176 174 172 167 167 167 164 161 156 153 149 141 134 129 124 118 113 105 97 93 88 83 76 67 62 53 45 38 31 25 20 14 10 6 1 356 352
165 173 180 199 200 178 228 249 203 196 191 175 186 191 186 166 131 184 240 196 139 170 181 213 262 269 257 174 207 267 266 204 190 185 190 206 209 207 209 205 202 204 204 200 185 178 181 181 181 178 175 174 174 175 174 171 168 163 159 154 147 142 139 134 128 121 113 108 102 91 84 76 65 56 45 34 27 20 15 11 8 4 0 357 354 350
154 124 137 196 215 211 249 272 212 216 218 180 217 202 179 181 157 178 227 220 133 213 156 136 258 276 272 112 264 268 256 216 186 181 193 210 208 204 215 218 218 218 211 193 177 177 181 182 182 180 179 181 183 182 178 176 174 170 165 157 152 150 148 144 141 135 128 123 115 102 92 82 66 50 34 23 15 9 6 4 1 358 355 352 350 348
148 128 136 247 299 304 306 311 270 208 121 202 249 179 162 197 171 163 206 145 140 218 166 114 251 270 323 10 353 289 255 178 172 183 191 201 201 202 211 216 218 215 200 176 170 175 180 183 184 184 186 189 190 186 182 180 178 175 169 164 163 163 160 158 156 154 151 146 140 133 120 104 64 24 10 2 358 356 355 354 354 352 349 346 344 343
186 169 137 139 319 325 328 310 273 261 191 210 229 185 171 149 100 86 102 94 230 218 166 192 249 249 307 338 4 16 71 144 179 194 188 198 208 209 211 214 211 199 188 181 174 173 178 184 189 191 193 194 194 192 189 186 183 179 176 175 176 175 173 171 171 171 172 168 164 173 181 203 257 302 327 332 337 341 343 346 346 345 343 340 339 338
172 170 159 177 213 229 226 220 224 211 187 211 211 193 194 161 147 155 134 173 237 191 158 218 246 250 321 326 340 2 59 158 199 213 215 227 223 219 218 210 198 194 198 195 184 179 183 190 196 197 196 197 198 199 198 195 190 186 187 187 187 187 184 183 184 184 187 189 189 202 218 228 243 265 289 306 321 331 337 340 340 339 338 336 334 334
126 176 199 206 224 220 195 215 234 126 130 194 215 195 201 191 177 168 143 203 217 161 192 230 220 174 268 251 248 304 233 200 207 203 224 243 234 226 226 212 205 209 209 198 185 184 191 199 201 199 198 200 203 205 204 201 197 194 196 198 198 199 195 192 194 195 198 204 206 211 221 229 238 254 274 296 316 327 332 333 333 333 332 331 331 330
109 223 219 213 244 233 174 187 206 117 142 203 217 227 228 211 184 189 212 211 161 165 239 235 158 176 231 209 198 223 218 212 214 206 217 230 223 213 209 207 213 219 214 197 190 196 199 203 201 198 199 202 205 207 207 205 204 203 204 205 206 206 205 202 204 205 207 212 214 219 225 230 239 255 276 298 314 322 325 326 327 328 328 328 327 327
126 237 218 186 250 259 243 213 177 167 210 216 216 230 232 221 202 203 220 214 176 207 248 220 150 206 233 195 195 213 205 196 205 207 206 199 187 188 193 205 217 221 214 205 207 209 206 202 196 196 201 203 203 206 207 207 208 208 210 212 213 213 213 211 212 214 216 217 219 224 229 233 243 262 282 300 310 315 320 322 324 324 324 324 324 325
145 229 201 174 237 254 245 217 175 186 212 218 224 230 228 222 210 205 219 217 198 229 258 190 180 232 237 189 200 214 192 182 208 219 170 172 198 207 212 228 237 233 221 215 217 215 207 202 199 199 201 201 202 205 207 208 209 211 213 216 218 219 218 218 219 221 221 222 223 227 231 236 250 269 285 298 306 313 318 320 321 321 321 321 321 322
187 202 141 148 222 247 226 181 184 206 212 222 237 234 214 195 205 211 217 201 166 239 252 236 241 255 240 167 189 218 193 193 241 253 228 221 227 231 235 239 242 239 230 225 221 213 206 203 200 200 200 201 204 206 208 210 212 213 216 219 221 222 222 222 222 223 224 224 225 227 233 241 255 272 286 298 306 312 315 316 317 317 317 319 320 321
184 185 77 115 213 240 194 166 189 205 222 248 249 235 179 172 206 205 198 186 186 213 225 226 244 255 228 140 170 224 210 208 234 240 241 246 234 223 234 239 235 230 227 225 217 205 202 201 197 198 202 205 207 208 210 213 213 214 217 220 222 223 222 223 224 224 224 223 224 228 235 246 260 275 288 299 305 309 312 312 313 314 315 317 319 320
165 162 133 166 207 236 28 146 156 122 255 257 251 220 185 202 219 172 160 210 209 200 200 217 235 241 168 141 189 235 222 214 230 231 233 245 236 220 229 235 231 229 224 218 213 205 204 203 202 203 205 208 210 212 215 216 215 217 220 222 222 222 221 222 223 223 221 220 223 229 237 250 265 278 289 299 304 307 309 310 311 313 315 317 318 319
170 171 175 184 192 219 9 77 119 169 225 248 262 192 189 205 212 205 214 221 207 195 205 234 252 123 137 178 216 235 231 216 222 229 225 225 224 220 226 229 228 228 223 215 211 210 209 207 207 210 211 213 216 217 218 218 218 222 223 222 221 221 220 221 219 217 216 217 222 230 240 254 269 283 293 300 304 306 308 309 311 314 316 316 317 317
176 181 186 160 152 141 65 92 167 218 232 260 343 345 193 196 198 208 238 249 215 209 222 241 256 225 214 223 225 232 245 240 229 237 235 222 214 208 212 223 223 217 214 211 209 211 210 207 209 213 215 218 220 220 220 221 221 222 222 220 220 219 218 216 213 211 213 216 223 233 247 263 277 288 296 300 303 306 308 310 312 315 316 316 316 317
175 176 157 117 137 119 113 177 207 240 265 312 338 347 47 84 113 144 287 270 227 210 208 214 232 236 234 238 234 215 256 290 295 256 236 228 219 202 201 212 210 202 202 202 202 205 207 207 211 215 219 223 225 224 225 225 222 220 219 217 216 214 212 210 208 209 212 217 227 240 255 271 283 291 296 299 302 304 307 309 312 314 315 315 314 315
173 169 169 190 186 153 172 207 235 324 296 234 258 259 169 144 147 152 225 255 235 201 182 187 220 237 237 232 192 101 69 17 336 286 236 220 216 206 208 212 200 197 205 205 204 206 209 212 215 219 224 227 225 224 224 223 219 216 213 210 208 207 206 206 207 211 215 223 235 250 264 276 284 290 294 297 300 303 306 309 311 313 314 313 313 315
165 173 192 217 207 139 159 211 233 278 252 225 201 216 179 146 153 146 173 264 263 202 179 183 210 231 230 171 128 104 77 50 298 275 236 212 211 205 218 228 215 207 209 208 206 207 208 211 214 216 218 218 217 218 217 214 211 206 203 201 201 202 203 205 210 214 221 231 243 255 267 277 284 288 291 294 299 302 305 308 310 312 313 313 312 313
63 78 141 199 208 141 173 215 211 223 252 251 187 201 82 135 133 104 61 284 263 202 183 183 202 217 204 172 154 128 113 164 255 265 232 205 207 199 205 224 225 221 221 215 211 212 209 206 206 208 209 211 213 212 210 207 204 200 199 200 200 202 205 209 214 220 228 238 249 259 270 278 283 287 291 295 300 302 304 307 309 310 311 310 310 310
74 60 148 189 208 195 198 226 237 238 260 204 153 148 152 147 109 89 328 273 248 206 180 169 193 209 183 160 152 145 162 196 230 248 219 192 198 201 202 210 217 219 220 218 214 214 212 206 204 206 211 215 216 214 210 206 202 201 203 203 202 207 212 215 220 226 234 243 253 264 273 279 283 287 293 297 300 301 302 305 307 308 308 308 307 307
123 265 197 208 223 222 221 236 270 259 234 189 172 167 158 108 79 108 233 241 202 196 188 170 190 198 162 152 161 181 208 214 208 204 168 161 176 201 210 215 217 216 218 220 217 212 209 209 210 214 220 222 218 215 210 205 203 205 206 206 209 215 218 220 225 232 239 249 260 268 274 278 282 288 293 296 298 299 300 304 306 306 307 307 307 307
165 171 222 210 210 227 237 245 281 275 223 149 142 179 156 122 120 214 227 212 168 179 191 193 195 180 162 172 186 201 222 226 206 179 173 174 184 205 211 211 211 213 217 219 217 212 209 208 210 215 221 222 217 215 211 207 208 209 208 211 218 222 222 224 230 237 244 253 262 267 272 277 281 287 291 293 295 296 298 302 304 305 307 306 306 308
168 153 197 212 180 145 231 225 239 271 212 130 121 99 247 193 201 202 180 176 179 168 172 194 203 185 176 188 205 216 230 241 233 230 227 214 218 227 220 207 204 209 211 206 207 210 209 208 211 216 220 219 217 215 211 209 210 211 212 218 223 223 222 227 233 240 247 254 261 266 271 275 278 283 287 289 292 293 296 301 304 304 305 305 306 307
184 163 195 221 187 150 189 218 217 226 170 150 142 162 214 203 183 155 146 165 207 182 170 190 209 200 188 193 209 219 230 246 246 240 235 229 230 233 231 220 213 216 215 210 211 212 209 210 216 219 219 219 217 214 212 212 213 213 216 222 224 221 223 228 234 240 248 255 261 266 269 272 276 281 283 286 289 291 295 301 304 304 305 305 306 306
220 175 175 199 203 179 185 211 222 173 178 182 173 183 201 197 173 152 152 159 192 200 182 187 207 205 195 196 203 206 217 232 236 230 224 227 231 229 229 226 221 220 221 220 219 216 213 215 219 218 217 218 217 215 214 214 214 216 221 224 222 221 225 230 236 242 249 256 260 263 267 270 274 280 282 284 288 291 295 301 303 304 305 305 304 302
242 147 147 151 247 256 235 184 180 200 205 205 212 216 203 191 174 163 163 176 195 191 182 191 203 198 189 187 190 200 217 226 232 235 229 230 238 234 229 232 233 232 230 229 227 223 219 219 219 217 216 218 217 216 215 215 217 221 225 224 222 223 228 232 238 245 250 255 259 262 266 270 274 277 279 282 285 289 294 300 302 303 303 303 302 300
270 147 149 180 238 261 268 172 158 169 188 196 211 232 241 237 215 190 191 213 206 185 191 206 204 182 174 175 183 204 221 221 225 240 239 230 235 236 226 227 234 235 234 233 232 228 220 214 214 214 215 218 219 217 215 216 218 222 225 225 222 224 229 234 240 246 250 253 257 260 265 270 273 276 277 280 284 287 292 298 300 300 300 300 300 298
246 148 161 229 226 209 211 211 215 325 268 218 218 228 239 242 230 208 209 225 213 189 200 210 184 154 165 182 191 204 222 223 218 230 238 233 233 234 227 226 231 235 237 237 235 229 220 216 216 216 217 219 220 218 215 216 219 221 222 223 223 225 229 235 240 245 248 251 255 258 262 267 272 276 279 281 282 285 291 296 297 296 296 297 298 296
149 166 179 200 213 208 170 170 74 13 325 268 244 237 238 238 230 219 220 227 222 212 212 218 199 179 185 198 194 192 217 233 224 221 230 236 237 234 230 231 233 236 238 239 235 229 224 222 221 220 221 222 221 218 216 217 219 220 221 222 223 225 229 234 239 243 246 249 252 254 258 263 268 273 278 280 281 285 289 294 297 297 296 297 299 297
147 201 184 132 195 241 209 170 164 164 247 238 226 227 234 233 221 218 226 224 225 223 212 214 226 220 216 221 205 184 208 237 233 218 221 233 239 238 236 236 236 239 241 241 236 230 228 228 227 226 225 225 221 217 216 217 217 218 220 221 223 226 230 232 237 241 243 246 249 251 256 260 264 268 272 276 282 287 289 290 294 295 293 294 295 290
183 204 192 173 211 226 184 176 190 202 224 231 220 222 230 223 197 208 226 225 225 224 209 204 220 232 237 235 219 201 209 235 236 222 219 235 241 242 243 241 239 241 243 239 230 227 229 229 228 227 226 225 221 216 215 215 215 215 217 220 223 227 231 232 235 239 242 245 246 249 253 256 259 263 266 272 279 286 290 293 293 288 288 292 294 287